• In Netherlands
  • List of Countries
  • For 7 days
  • Water Temperature
  • Satellite Maps
  • Weather Map
  • Weather Widgets
  • user-avatar
    Login

    Hourly Weather Kaprun

    Today, 23 October, Monday

    Time Temperature Precipitation Wind Pressure Humidity
    00:00 -6°C° 0.8 mm 3 mps 593 mmHg 94%
    01:00 -4°C° 0 mm 2 mps 593 mmHg 91%
    02:00 -4°C° 0.7 mm 2 mps 593 mmHg 92%
    03:00 -5°C° 0.7 mm 3 mps 593 mmHg 92%
    04:00 -5°C° 0.7 mm 3 mps 593 mmHg 92%
    05:00 -6°C° 0.8 mm 3 mps 593 mmHg 92%
    06:00 -6°C° 0.8 mm 3 mps 593 mmHg 92%
    07:00 -6°C° 0 mm 3 mps 593 mmHg 92%
    08:00 -5°C° 0.7 mm 3 mps 594 mmHg 89%
    09:00 -5°C° 0.7 mm 3 mps 594 mmHg 87%
    10:00 -4°C° 0.7 mm 4 mps 594 mmHg 84%
    11:00 -4°C° 0.6 mm 4 mps 594 mmHg 83%
    12:00 -4°C° 0.6 mm 4 mps 595 mmHg 83%
    13:00 -2°C° 0 mm 3 mps 595 mmHg 82%
    14:00 -4°C° 0.5 mm 3 mps 595 mmHg 83%
    15:00 -4°C° 0.5 mm 3 mps 595 mmHg 85%
    16:00 -4°C° 0.5 mm 3 mps 595 mmHg 86%
    17:00 -4°C° 0.7 mm 3 mps 595 mmHg 88%
    18:00 -5°C° 0.7 mm 3 mps 596 mmHg 90%
    19:00 -5°C° 0.7 mm 3 mps 596 mmHg 92%
    20:00 -5°C° 0.9 mm 3 mps 596 mmHg 92%
    21:00 -5°C° 0.9 mm 3 mps 597 mmHg 92%
    22:00 -5°C° 0.9 mm 3 mps 597 mmHg 93%
    23:00 -5°C° 0.6 mm 3 mps 597 mmHg 93%

    Tomorrow, 24 October, Tuesday

    Time Temperature Precipitation Wind Pressure Humidity
    00:00 -5°C° 0.6 mm 3 mps 597 mmHg 93%
    01:00 -5°C° 0.6 mm 3 mps 598 mmHg 93%
    02:00 -5°C° 0.5 mm 3 mps 598 mmHg 94%
    03:00 -5°C° 0.5 mm 3 mps 598 mmHg 94%
    04:00 -5°C° 0.5 mm 3 mps 598 mmHg 94%
    05:00 -5°C° 0.3 mm 3 mps 598 mmHg 94%
    06:00 -5°C° 0.3 mm 3 mps 598 mmHg 95%
    07:00 -5°C° 0.3 mm 3 mps 599 mmHg 95%
    08:00 -4°C° 0.1 mm 3 mps 599 mmHg 92%
    09:00 -2°C° 0.1 mm 3 mps 600 mmHg 89%
    10:00 -1°C° 0.1 mm 3 mps 600 mmHg 86%
    11:00 -1°C° 0 mm 3 mps 600 mmHg 84%
    12:00 0°C° 0 mm 3 mps 600 mmHg 83%
    13:00 +1°C° 0 mm 3 mps 601 mmHg 82%
    14:00 +1°C° 0 mm 2 mps 600 mmHg 83%
    15:00 +1°C° 0 mm 2 mps 600 mmHg 84%
    16:00 +1°C° 0 mm 2 mps 600 mmHg 85%
    17:00 -1°C° 0 mm 2 mps 600 mmHg 86%
    18:00 -2°C° 0 mm 2 mps 600 mmHg 87%
    19:00 -3°C° 0 mm 2 mps 600 mmHg 88%
    20:00 -3°C° 0 mm 2 mps 600 mmHg 89%
    21:00 -3°C° 0 mm 2 mps 600 mmHg 89%
    22:00 -3°C° 0 mm 2 mps 601 mmHg 89%
    23:00 -3°C° 0 mm 2 mps 601 mmHg 88%

    Day after tomorrow, 25 October, Wednesday

    Time Temperature Precipitation Wind Pressure Humidity
    00:00 -3°C° 0 mm 2 mps 601 mmHg 88%
    01:00 -3°C° 0 mm 2 mps 601 mmHg 87%
    02:00 -2°C° 0 mm 2 mps 601 mmHg 87%
    03:00 -2°C° 0 mm 2 mps 601 mmHg 86%
    04:00 -2°C° 0 mm 2 mps 601 mmHg 86%
    05:00 -2°C° 0 mm 2 mps 601 mmHg 86%
    06:00 -2°C° 0 mm 2 mps 601 mmHg 85%
    07:00 -1°C° 0 mm 2 mps 601 mmHg 85%
    08:00 +2°C° 0 mm 2 mps 602 mmHg 84%
    09:00 +4°C° 0 mm 1 mps 603 mmHg 83%
    10:00 +6°C° 0 mm 1 mps 604 mmHg 82%
    11:00 +7°C° 0 mm 1 mps 604 mmHg 81%
    12:00 +8°C° 0 mm 1 mps 604 mmHg 79%
    13:00 +9°C° 0 mm 1 mps 604 mmHg 78%
    14:00 +8°C° 0 mm 1 mps 604 mmHg 81%
    15:00 +7°C° 0 mm 1 mps 603 mmHg 84%
    16:00 +6°C° 0 mm 1 mps 603 mmHg 87%
    17:00 +5°C° 0 mm 1 mps 603 mmHg 87%
    18:00 +3°C° 0 mm 1 mps 602 mmHg 87%
    19:00 +2°C° 0 mm 1 mps 602 mmHg 87%
    20:00 +2°C° 0 mm 1 mps 602 mmHg 85%
    21:00 +2°C° 0 mm 1 mps 602 mmHg 82%
    22:00 +2°C° 0 mm 1 mps 603 mmHg 80%
    23:00 +2°C° 0 mm 1 mps 603 mmHg 78%

    26 October, Thursday

    Time Temperature Precipitation Wind Pressure Humidity
    00:00 +1°C° 0 mm 1 mps 603 mmHg 77%
    01:00 +1°C° 0 mm 1 mps 602 mmHg 75%
    02:00 +1°C° 0 mm 1 mps 602 mmHg 74%
    03:00 +2°C° 0 mm 1 mps 602 mmHg 73%
    04:00 +2°C° 0 mm 1 mps 602 mmHg 72%
    05:00 +2°C° 0 mm 1 mps 602 mmHg 71%
    06:00 +2°C° 0 mm 1 mps 602 mmHg 70%
    07:00 +2°C° 0 mm 1 mps 603 mmHg 69%
    08:00 +4°C° 0 mm 1 mps 603 mmHg 67%
    09:00 +7°C° 0 mm 1 mps 604 mmHg 66%
    10:00 +9°C° 0 mm 1 mps 605 mmHg 65%
    11:00 +10°C° 0 mm 1 mps 605 mmHg 63%
    12:00 +10°C° 0 mm 1 mps 606 mmHg 61%
    13:00 +11°C° 0 mm 1 mps 606 mmHg 59%
    14:00 +10°C° 0 mm 1 mps 605 mmHg 65%
    15:00 +9°C° 0 mm 1 mps 604 mmHg 71%
    16:00 +7°C° 0 mm 0 mps 604 mmHg 77%
    17:00 +6°C° 0 mm 1 mps 603 mmHg 78%
    18:00 +5°C° 0 mm 1 mps 602 mmHg 79%
    19:00 +3°C° 0 mm 1 mps 602 mmHg 79%
    20:00 +3°C° 0 mm 1 mps 602 mmHg 77%
    21:00 +3°C° 0 mm 1 mps 602 mmHg 74%
    22:00 +3°C° 0 mm 1 mps 602 mmHg 72%
    23:00 +2°C° 0 mm 1 mps 602 mmHg 70%

    27 October, Friday

    Time Temperature Precipitation Wind Pressure Humidity
    00:00 +2°C° 0 mm 1 mps 601 mmHg 68%
    01:00 +2°C° 0 mm 1 mps 601 mmHg 66%
    02:00 +1°C° 0 mm 2 mps 601 mmHg 66%
    03:00 +2°C° 0 mm 2 mps 601 mmHg 67%
    04:00 +2°C° 0 mm 2 mps 600 mmHg 67%
    05:00 +1°C° 0 mm 2 mps 600 mmHg 68%
    06:00 +1°C° 0 mm 2 mps 600 mmHg 70%
    07:00 +1°C° 0 mm 2 mps 600 mmHg 71%
    08:00 +4°C° 0 mm 1 mps 600 mmHg 69%
    09:00 +6°C° 0 mm 1 mps 601 mmHg 67%
    10:00 +8°C° 0 mm 1 mps 601 mmHg 65%
    11:00 +9°C° 0 mm 1 mps 601 mmHg 64%
    12:00 +8°C° 0 mm 2 mps 601 mmHg 64%
    13:00 +9°C° 0 mm 2 mps 600 mmHg 63%
    14:00 +8°C° 0.1 mm 2 mps 600 mmHg 69%
    15:00 +6°C° 0.1 mm 2 mps 599 mmHg 74%
    16:00 +5°C° 0.1 mm 2 mps 598 mmHg 80%
    17:00 +4°C° 1.3 mm 2 mps 598 mmHg 84%
    18:00 +3°C° 1.3 mm 2 mps 597 mmHg 88%
    19:00 +2°C° 1.3 mm 2 mps 597 mmHg 92%
    20:00 +1°C° 2 mm 3 mps 597 mmHg 93%
    21:00 0°C° 2 mm 3 mps 597 mmHg 94%
    22:00 0°C° 2 mm 3 mps 597 mmHg 95%
    23:00 -1°C° 0.4 mm 3 mps 597 mmHg 94%

    28 October, Saturday

    Time Temperature Precipitation Wind Pressure Humidity
    00:00 -2°C° 0.4 mm 3 mps 597 mmHg 94%
    01:00 -4°C° 0.4 mm 3 mps 597 mmHg 93%
    02:00 -5°C° 0.1 mm 3 mps 597 mmHg 94%
    03:00 -5°C° 0.1 mm 3 mps 596 mmHg 94%
    04:00 -5°C° 0.1 mm 2 mps 596 mmHg 94%
    05:00 -6°C° 0.1 mm 2 mps 596 mmHg 94%
    06:00 -6°C° 0.1 mm 2 mps 596 mmHg 93%
    07:00 -6°C° 0.1 mm 2 mps 596 mmHg 93%
    08:00 -5°C° 0.1 mm 2 mps 596 mmHg 87%
    09:00 -4°C° 0.1 mm 2 mps 597 mmHg 82%
    10:00 -3°C° 0.1 mm 2 mps 597 mmHg 76%
    11:00 -2°C° 0.1 mm 2 mps 597 mmHg 72%
    12:00 -2°C° 0.1 mm 2 mps 597 mmHg 68%
    13:00 -1°C° 0.1 mm 3 mps 596 mmHg 63%
    14:00 -2°C° 0.5 mm 3 mps 596 mmHg 69%
    15:00 -2°C° 0.5 mm 3 mps 596 mmHg 74%
    16:00 -3°C° 0.5 mm 2 mps 595 mmHg 80%
    17:00 -4°C° 0.7 mm 2 mps 595 mmHg 83%
    18:00 -4°C° 0.7 mm 2 mps 595 mmHg 86%
    19:00 -4°C° 0.7 mm 2 mps 595 mmHg 89%
    20:00 -6°C° 0.7 mm 3 mps 595 mmHg 89%
    21:00 -6°C° 0.7 mm 3 mps 595 mmHg 89%
    22:00 -6°C° 0.7 mm 3 mps 595 mmHg 90%
    23:00 -6°C° 0.5 mm 3 mps 595 mmHg 90%

    29 October, Sunday

    Time Temperature Precipitation Wind Pressure Humidity
    00:00 -6°C° 0.5 mm 3 mps 595 mmHg 90%
    01:00 -6°C° 0.5 mm 3 mps 595 mmHg 90%
    02:00 -6°C° 0.4 mm 3 mps 594 mmHg 91%
    03:00 -6°C° 0.4 mm 3 mps 594 mmHg 91%
    04:00 -6°C° 0.4 mm 3 mps 594 mmHg 91%
    05:00 -7°C° 0.2 mm 3 mps 594 mmHg 91%
    06:00 -7°C° 0.2 mm 3 mps 594 mmHg 91%
    07:00 -7°C° 0.2 mm 3 mps 594 mmHg 91%
    08:00 -5°C° 0.2 mm 3 mps 595 mmHg 87%
    09:00 -4°C° 0.2 mm 3 mps 595 mmHg 83%
    10:00 -2°C° 0.2 mm 3 mps 596 mmHg 79%
    11:00 -1°C° 0.1 mm 3 mps 596 mmHg 78%
    12:00 -1°C° 0.1 mm 3 mps 596 mmHg 77%
    13:00 0°C° 0.1 mm 3 mps 596 mmHg 76%
    14:00 -1°C° 0 mm 2 mps 595 mmHg 79%
    15:00 -1°C° 0 mm 2 mps 595 mmHg 81%
    16:00 -1°C° 0 mm 2 mps 594 mmHg 84%
    17:00 -3°C° 0 mm 2 mps 594 mmHg 87%
    18:00 -4°C° 0 mm 2 mps 594 mmHg 90%
    19:00 -5°C° 0 mm 2 mps 593 mmHg 93%
    20:00 -5°C° 0.2 mm 2 mps 593 mmHg 92%
    21:00 -4°C° 0.2 mm 2 mps 593 mmHg 91%
    22:00 -4°C° 0.2 mm 2 mps 593 mmHg 89%
    23:00 -4°C° 0.5 mm 2 mps 593 mmHg 90%
    Show more